Weather History for Caribou, ME

Change the Weather History Date:

Thursday, April 11, 2013

  Actual Average Record
Temperature  
Mean Temperature 32 °F 36 °F  
Max Temperature 37 °F 45 °F 78 °F (1945)
Min Temperature 26 °F 28 °F 8 °F (1977)
Degree Days  
Heating Degree Days 33 29  
Month to date heating degree days 375 344  
Since 1 July heating degree days 7608 8319  
Cooling Degree Days 0 0  
Month to date cooling degree days 0 0  
Year to date cooling degree days 0 0  
Moisture  
Dew Point 13 °F    
Average Humidity 46    
Maximum Humidity 54    
Minimum Humidity 38    
Precipitation  
Precipitation 0.00 in 0.10 in 0.83 in (1961)
Month to date precipitation 0.50 0.96  
Year to date precipitation 7.61 8.39  
Snow  
Snow 0.00 in 0.30 in 7.20 in (1961)
Month to date snowfall T 3.9  
Since 1 July snowfall 102.6 104.7  
Snow Depth 0.00 in    
Sea Level Pressure  
Sea Level Pressure 30.03 in    
Wind  
Wind Speed 14 mph (NW)    
Max Wind Speed 25 mph    
Max Gust Speed 31 mph    
Visibility 10 miles    
Events      
T = Trace of Precipitation, MM = Missing Value Source: NWS Daily Summary

Daily Weather History Graph

Daily Weather History Graph

Search for Another Location

Airport:

Trip Planner

Search our weather history database for the weather conditions in past years. The results will help you decide how hot, cold, wet, or windy it might be!

Date:

Astronomy

Apr. 11, 2013 Rise Set
Actual Time 5:51 AM EDT 7:15 PM EDT
Civil Twilight 5:20 AM EDT 7:46 PM EDT
Nautical Twilight 4:42 AM EDT 8:25 PM EDT
Astronomical Twilight 4:01 AM EDT 9:06 PM EDT
Moon 6:15 AM EDT (4/11) 8:53 PM EDT (4/11)
Length of Visible Light 14h 26m
Length of Day
13h 23m
New Moon, 2% of the Moon is Illuminated
Apr 11
New Moon
Apr 18
First Quarter
Apr 25
Full
May 2
Last Quarter
May 9
New

Hourly Weather History & Observations

Time (EDT) Temp. Windchill Dew Point Humidity Pressure Visibility Wind Dir Wind Speed Gust Speed Precip Events Conditions
12:54 AM 34.0 °F 27.2 °F 18.0 °F 52% 29.91 in 10.0 mi NW 8.1 mph - N/A   Partly Cloudy
1:54 AM 33.1 °F 24.4 °F 18.0 °F 54% 29.91 in 10.0 mi NNW 11.5 mph - N/A   Overcast
2:54 AM 32.0 °F 22.1 °F 18.0 °F 56% 29.89 in 10.0 mi NNW 13.8 mph 20.7 mph N/A   Overcast
3:54 AM 30.0 °F 18.7 °F 14.0 °F 51% 29.94 in 10.0 mi NNW 16.1 mph 24.2 mph N/A   Overcast
4:54 AM 28.0 °F 16.1 °F 10.9 °F 49% 29.94 in 10.0 mi NNW 16.1 mph 24.2 mph N/A   Scattered Clouds
5:54 AM 27.0 °F 16.7 °F 10.0 °F 49% 29.96 in 10.0 mi NNW 11.5 mph - N/A   Clear
6:54 AM 27.0 °F 15.6 °F 8.1 °F 45% 29.98 in 10.0 mi NW 13.8 mph 21.9 mph N/A   Clear
7:54 AM 27.0 °F 13.9 °F 8.1 °F 45% 30.00 in 10.0 mi NNW 18.4 mph 27.6 mph N/A   Clear
8:54 AM 28.9 °F 16.9 °F 9.0 °F 43% 29.99 in 10.0 mi NNW 17.3 mph 26.5 mph N/A   Clear
9:54 AM 30.0 °F 17.9 °F 10.0 °F 43% 30.00 in 10.0 mi NNW 18.4 mph 29.9 mph N/A   Clear
10:54 AM 30.9 °F 18.4 °F 12.0 °F 46% 30.01 in 10.0 mi NW 20.7 mph 28.8 mph N/A   Clear
11:54 AM 32.0 °F 20.1 °F 12.0 °F 44% 30.02 in 10.0 mi NW 19.6 mph 27.6 mph N/A   Clear
1:54 PM 34.0 °F 23.0 °F 12.0 °F 40% 30.03 in 10.0 mi NW 18.4 mph 28.8 mph N/A   Clear
2:54 PM 36.0 °F 26.3 °F 14.0 °F 41% 30.04 in 10.0 mi NNW 16.1 mph 26.5 mph N/A   Clear
3:54 PM 36.0 °F 26.3 °F 12.9 °F 39% 30.04 in 10.0 mi NNW 16.1 mph 21.9 mph N/A   Clear
4:54 PM 35.1 °F 24.8 °F 14.0 °F 42% 30.05 in 10.0 mi NW 17.3 mph 24.2 mph N/A   Clear
5:54 PM 34.0 °F 23.8 °F 12.9 °F 42% 30.08 in 10.0 mi NNW 16.1 mph 23.0 mph N/A   Clear
6:54 PM 32.0 °F 21.2 °F 14.0 °F 48% 30.11 in 10.0 mi NNW 16.1 mph 20.7 mph N/A   Clear
7:54 PM 30.9 °F 23.5 °F 14.0 °F 50% 30.13 in 10.0 mi NW 8.1 mph - N/A   Clear
8:54 PM 30.9 °F 22.2 °F 15.1 °F 52% 30.16 in 10.0 mi NNW 10.4 mph - N/A   Clear
9:54 PM 30.0 °F 24.1 °F 14.0 °F 51% 30.17 in 10.0 mi NW 5.8 mph - N/A   Clear
10:54 PM 28.9 °F 21.9 °F 14.0 °F 54% 30.19 in 10.0 mi WNW 6.9 mph - N/A   Clear
11:54 PM 28.0 °F 20.0 °F 14.0 °F 56% 30.20 in 10.0 mi WNW 8.1 mph - N/A   Clear